Tracking 17996 objects as of 26-February-2017
HD Live streaming from Space Station
objects crossing your sky now

MOZHAYETS

Track MOZHAYETS now!
10-day predictions
MOZHAYETS is classified as:


NORAD ID: 27560
Int'l Code: 2002-054B
Perigee: 678.1 km
Apogee: 738.1 km
Inclination: 98.2 °
Period: 98.8 minutes
Semi major axis: 7079 km
RCS: 1.03 m2 (large)
Launch date: November 28, 2002
Source: Commonwealth of Independent States (former USSR) (CIS)
Launch site: PLESETSK MISSILE AND SPACE COMPLEX (PKMTR)
Your satellite tracking list
Your tracking list is empty





NASA's NSSDC Master Catalog

Two Line Element Set (TLE):
1 27560U 02054B   17057.23769887  .00000103  00000-0  32514-4 0  9994
2 27560  98.1889 193.3471 0042328  96.5440  21.6101 14.57587607755839
Source of the keplerian elements: AFSPC